W3UGI Weather Reports


time (UTC)temp
C
wind
direction
speed
KPH
gust
KPH
rain 1hr
cm
rain 24hr
cm
rain mn
cm
humidity
%
barometer
mb
20260505110326 15 226 1.6 11.3 0.00 0.00 0.00 76 1010.6
20260505101829 15 213 3.2 8.0 0.00 0.00 0.00 75 1010.5
20260505100356 15 219 1.6 8.0 0.00 0.00 0.00 75 1010.3
20260505094831 15 220 1.6 12.9 0.00 0.00 0.00 76 1010.1
20260505093323 13 197 0.0 8.0 0.00 0.00 0.00 80 1009.9
20260505091820 13 200 0.0 8.0 0.00 0.00 0.00 82 1010.0
20260505090332 13 198 0.0 0.0 0.00 0.00 0.00 79 1009.9
20260505084828 14 198 0.0 0.0 0.00 0.00 0.00 76 1009.9
20260505083324 15 198 0.0 0.0 0.00 0.00 0.00 74 1010.0
20260505081830 16 198 0.0 1.6 0.00 0.00 0.00 72 1009.9
20260505080324 16 198 0.0 11.3 0.00 0.00 0.00 70 1009.9
20260505074817 16 218 3.2 17.7 0.00 0.00 0.00 70 1010.0
20260505073332 16 169 6.4 16.1 0.00 0.00 0.00 70 1010.0
20260505071818 16 232 1.6 16.1 0.00 0.00 0.00 71 1010.0
20260505070330 15 217 3.2 8.0 0.00 0.00 0.00 71 1010.0
20260505064843 15 224 3.2 9.7 0.00 0.00 0.00 73 1009.9
20260505063313 15 209 1.6 12.9 0.00 0.00 0.00 72 1010.0
20260505061852 15 214 6.4 16.1 0.00 0.00 0.00 71 1009.8
20260505060318 15 232 0.0 4.8 0.00 0.00 0.00 73 1009.9
20260505054826 15 232 1.6 6.4 0.00 0.00 0.00 71 1009.8
20260505053324 16 230 3.2 9.7 0.00 0.00 0.00 68 1010.0
20260505051834 16 204 3.2 14.5 0.00 0.00 0.00 68 1010.0
20260505050352 16 217 3.2 11.3 0.00 0.00 0.00 67 1010.1
20260505040314 16 225 3.2 9.7 0.00 0.00 0.00 61 1009.9
20260505034831 17 220 3.2 11.3 0.00 0.00 0.00 58 1009.9
20260505033346 17 215 3.2 11.3 0.00 0.00 0.00 56 1009.8
20260505031827 17 188 1.6 8.0 0.00 0.00 0.00 55 1010.0
20260505030323 17 180 1.6 6.4 0.00 0.00 0.00 55 1009.9
20260505024816 17 218 3.2 11.3 0.00 0.00 0.00 56 1010.1
20260505023332 16 219 3.2 9.7 0.00 0.00 0.00 58 1010.2
20260505021843 15 219 1.6 6.4 0.00 0.00 0.00 67 1010.2
20260505020318 15 219 0.0 3.2 0.00 0.00 0.00 70 1010.2
20260505014833 15 219 0.0 0.0 0.00 0.00 0.00 68 1010.2
20260505013325 15 219 0.0 0.0 0.00 0.00 0.00 67 1010.1
20260505011822 15 219 0.0 0.0 0.00 0.00 0.00 66 1010.0
20260505010329 16 219 0.0 0.0 0.00 0.00 0.00 58 1009.8
20260505004826 17 219 0.0 0.0 0.00 0.00 0.00 59 1009.6
20260505003320 18 219 0.0 0.0 0.00 0.00 0.00 51 1009.4
20260505001816 19 219 0.0 6.4 0.00 0.00 0.00 47 1009.4
20260505000331 20 219 1.6 11.3 0.00 0.00 0.00 45 1009.2
20260504234841 20 216 0.0 3.2 0.00 0.00 0.00 43 1009.2
20260504233335 20 206 4.8 14.5 0.00 0.00 0.00 42 1009.1
20260504231828 21 224 3.2 14.5 0.00 0.00 0.00 41 1009.0
20260504230324 21 212 6.4 12.9 0.00 0.00 0.00 40 1009.0
20260504224814 21 232 8.0 16.1 0.00 0.00 0.00 40 1008.9
20260504223313 21 219 1.6 9.7 0.00 0.00 0.00 40 1009.1
20260504221828 21 203 8.0 17.7 0.00 0.00 0.00 39 1009.1
20260504220323 21 212 3.2 24.1 0.00 0.00 0.00 39 1009.1
20260504214822 21 194 6.4 12.9 0.00 0.00 0.00 40 1009.3
20260504213315 21 221 3.2 11.3 0.00 0.00 0.00 40 1009.3
20260504211828 21 145 6.4 17.7 0.00 0.00 0.00 39 1009.3
20260504210340 21 248 3.2 19.3 0.00 0.00 0.00 40 1009.2
20260504204829 21 214 8.0 14.5 0.00 0.00 0.00 38 1009.4
20260504203323 22 186 3.2 12.9 0.00 0.00 0.00 38 1009.3
20260504201816 22 209 9.7 17.7 0.00 0.00 0.00 36 1009.5
20260504200330 22 178 3.2 16.1 0.00 0.00 0.00 39 1009.5
20260504194821 22 171 1.6 19.3 0.00 0.00 0.00 38 1009.6
20260504193315 22 203 3.2 19.3 0.00 0.00 0.00 38 1009.6
20260504191827 22 246 0.0 12.9 0.00 0.00 0.00 38 1009.9
20260504190319 22 196 8.0 17.7 0.00 0.00 0.00 38 1010.2
20260504184849 21 179 9.7 19.3 0.00 0.00 0.00 38 1010.4
20260504183325 22 291 3.2 9.7 0.00 0.00 0.00 37 1010.4
20260504181821 22 296 4.8 16.1 0.00 0.00 0.00 38 1010.7
20260504180334 21 202 1.6 14.5 0.00 0.00 0.00 40 1010.9
20260504174843 21 232 3.2 20.9 0.00 0.00 0.00 39 1011.1
20260504173352 21 252 4.8 16.1 0.00 0.00 0.00 39 1011.3
20260504171817 20 207 3.2 17.7 0.00 0.00 0.00 43 1011.5
20260504170316 20 174 6.4 24.1 0.00 0.00 0.00 39 1011.8
20260504160331 20 234 3.2 16.1 0.00 0.00 0.00 43 1012.5
20260504150344 18 215 4.8 16.1 0.00 0.00 0.00 48 1013.2
20260504140328 16 213 4.8 9.7 0.00 0.00 0.00 58 1013.4
20260504130329 13 219 1.6 16.1 0.00 0.00 0.00 70 1013.9
20260504120317 11 203 4.8 14.5 0.00 0.00 0.00 78 1014.1